Date String (YYYY-MM-DD hh:mm:ss) UTC,Instrument flags,absolute air pressure of the measurement (hPa),sample flow rate (lpm),inlet stack bypass flow (lpm),air temperature of the measurement (°C),ambient temperature measured by the external sensor (°C),aerosol sample conditioner tube jacket temperature (°C),OPC LED temperature (°C),internal box temperature (°C),relative humidity of the measurement (%),span deviation,mass concentration of particles derived from Lorenz-Mie calculation of OPC scattering (μg/m³),mass concentration of particles derived from Lorenz-Mie calculation of OPC scattering (μg/m³),mass concentration of particles derived from Lorenz-Mie calculation of OPC scattering (μg/m³)
DateTimeUTC,F1_M11,P_M11,Q1_M11,Q2_M11,T1_M11,T2_M11,T3_M11,T4_M11,T5_M11,U1_M11,ZSPAN_M11,X2_M11,X0_M11,X1_M11
2023-10-05 10:00:00,SystemResetWarning,0835.5,5.00,000.00,029.2,027.6,000.0,037.7,030.8,13.0,0000.0,0002.38,0008.01,0001.69
2023-10-05 10:01:00,SystemResetWarning,0835.5,5.00,000.00,029.2,027.6,000.0,037.7,030.8,13.0,0000.0,0002.36,0008.28,0001.68
2023-10-05 10:02:00,SystemResetWarning,0835.5,5.00,000.00,029.2,027.6,000.0,037.7,030.8,13.0,0000.0,0002.37,0007.81,0001.68
2023-10-05 10:03:00,SystemResetWarning,0835.5,5.01,000.00,029.2,027.6,000.0,037.7,030.8,13.0,0000.0,0002.38,0007.77,0001.66
2023-10-05 10:04:00,SystemResetWarning,0835.5,5.01,000.00,029.2,027.6,000.0,037.7,030.8,13.0,0000.0,0002.37,0007.07,0001.65
2023-10-05 10:05:00,SystemResetWarning,0835.5,5.00,000.00,029.2,027.6,000.0,037.7,030.8,13.0,0000.0,0002.30,0005.79,0001.65
2023-10-05 10:06:00,SystemResetWarning,0835.5,5.00,000.00,029.2,027.6,000.0,037.7,030.8,13.0,0000.0,0002.28,0005.89,0001.64
2023-10-05 10:07:00,SystemResetWarning,0835.5,4.99,000.00,029.2,027.6,000.0,037.7,030.8,13.0,0000.0,0002.25,0005.72,0001.63
2023-10-05 10:08:00,SystemResetWarning,0835.5,5.00,000.00,029.2,027.6,000.0,037.7,030.8,13.0,0000.0,0002.25,0005.63,0001.64
2023-10-05 10:09:00,SystemResetWarning,0835.5,4.99,000.00,029.2,027.6,000.0,037.7,030.8,13.0,0000.0,0002.21,0005.75,0001.65
2023-10-05 10:10:00,SystemResetWarning,0835.5,4.99,000.00,029.2,027.6,000.0,037.7,030.8,13.0,0000.0,0002.22,0006.56,0001.66
2023-10-05 10:11:00,SystemResetWarning,0835.6,5.00,000.00,029.2,027.6,000.0,037.7,030.8,13.0,0000.0,0002.21,0006.27,0001.66
2023-10-05 10:12:00,SystemResetWarning,0835.6,5.00,000.00,029.2,027.6,000.0,037.7,030.8,13.0,0000.0,0002.18,0006.04,0001.65
2023-10-05 10:13:00,SystemResetWarning,0835.7,5.00,000.00,029.2,027.6,000.0,037.7,030.8,13.0,0000.0,0002.16,0005.49,0001.65
2023-10-05 10:14:00,SystemResetWarning,0835.6,5.01,000.00,029.2,027.6,000.0,037.7,030.8,13.0,0000.0,0002.15,0005.69,0001.66
2023-10-05 10:15:00,SystemResetWarning,0835.6,5.00,000.00,029.2,027.6,000.0,037.7,030.8,13.1,0000.0,0002.14,0007.17,0001.67
2023-10-05 10:16:00,SystemResetWarning,0835.6,5.00,000.00,029.2,027.6,000.0,037.7,030.8,13.1,0000.0,0002.13,0007.54,0001.66
2023-10-05 10:17:00,SystemResetWarning,0835.6,5.00,000.00,029.2,027.6,000.0,037.7,030.8,13.1,0000.0,0002.11,0007.44,0001.67
2023-10-05 10:18:00,SystemResetWarning,0835.6,4.99,000.00,029.2,027.6,000.0,037.7,030.8,13.1,0000.0,0002.18,0007.84,0001.69
2023-10-05 10:19:00,SystemResetWarning,0835.6,4.99,000.00,029.2,027.6,000.0,037.7,030.8,13.1,0000.0,0002.21,0008.74,0001.68
2023-10-05 10:20:00,SystemResetWarning,0835.6,5.00,000.00,029.2,027.6,000.0,037.7,030.8,13.1,0000.0,0002.22,0008.71,0001.66
2023-10-05 10:21:00,SystemResetWarning,0835.7,5.01,000.00,029.2,027.6,000.0,037.7,030.7,13.2,0000.0,0002.18,0008.14,0001.64
2023-10-05 10:22:00,SystemResetWarning,0835.7,5.01,000.00,029.2,027.6,000.0,037.7,030.7,13.2,0000.0,0002.14,0008.56,0001.62
2023-10-05 10:23:00,SystemResetWarning,0835.6,5.00,000.00,029.2,027.6,000.0,037.6,030.7,13.2,0000.0,0002.16,0008.45,0001.63
2023-10-05 10:24:00,SystemResetWarning,0835.6,5.01,000.00,029.2,027.6,000.0,037.6,030.7,13.3,0000.0,0002.22,0008.61,0001.62
2023-10-05 10:25:00,SystemResetWarning,0835.9,5.00,000.00,029.2,027.5,000.0,037.7,030.7,13.3,0000.0,0002.27,0008.72,0001.61
2023-10-05 10:26:00,SystemResetWarning,0835.7,5.00,000.00,029.1,027.5,000.0,037.7,030.7,13.3,0000.0,0002.27,0008.28,0001.61
2023-10-05 10:27:00,SystemResetWarning,0835.7,5.00,000.00,029.1,027.5,000.0,037.6,030.7,13.3,0000.0,0002.28,0008.45,0001.60
2023-10-05 10:28:00,SystemResetWarning,0835.7,5.00,000.00,029.1,027.5,000.0,037.6,030.7,13.3,0000.0,0002.31,0008.76,0001.60
2023-10-05 10:29:00,SystemResetWarning,0835.7,5.00,000.00,029.1,027.5,000.0,037.6,030.7,13.4,0000.0,0002.27,0008.46,0001.58
2023-10-05 10:30:00,SystemResetWarning,0835.7,5.00,000.00,029.1,027.5,000.0,037.6,030.7,13.4,0000.0,0002.23,0007.55,0001.59
2023-10-05 10:31:00,SystemResetWarning,0835.7,5.00,000.00,029.1,027.5,000.0,037.6,030.7,13.5,0000.0,0002.20,0007.41,0001.59
2023-10-05 10:32:00,SystemResetWarning,0835.7,5.00,000.00,029.1,027.5,000.0,037.6,030.7,13.5,0000.0,0002.25,0007.45,0001.60
2023-10-05 10:33:00,SystemResetWarning,0835.8,5.00,000.00,029.1,027.5,000.0,037.6,030.7,13.5,0000.0,0002.31,0007.44,0001.61
2023-10-05 10:34:00,SystemResetWarning,0835.8,5.00,000.00,029.1,027.5,000.0,037.6,030.7,13.5,0000.0,0002.35,0007.66,0001.62
2023-10-05 10:35:00,SystemResetWarning,0835.8,5.00,000.00,029.1,027.5,000.0,037.6,030.7,13.5,0000.0,0002.36,0007.61,0001.62
2023-10-05 10:36:00,SystemResetWarning,0835.8,5.00,000.00,029.1,027.5,000.0,037.6,030.7,13.6,0000.0,0002.37,0007.58,0001.63
2023-10-05 10:37:00,SystemResetWarning,0835.8,5.00,000.00,029.1,027.5,000.0,037.6,030.7,13.5,0000.0,0002.40,0007.70,0001.65
2023-10-05 10:38:00,SystemResetWarning,0835.8,4.99,000.00,029.1,027.5,000.0,037.6,030.7,13.6,0000.0,0002.47,0009.15,0001.66
2023-10-05 10:39:00,SystemResetWarning,0835.8,5.00,000.00,029.1,027.5,000.0,037.6,030.7,13.6,0000.0,0002.46,0009.93,0001.65
2023-10-05 10:40:00,SystemResetWarning,0835.8,5.00,000.00,029.1,027.5,000.0,037.6,030.7,13.7,0000.0,0002.48,0011.06,0001.66
2023-10-05 10:41:00,SystemResetWarning,0835.8,5.00,000.00,029.1,027.5,000.0,037.6,030.7,13.8,0000.0,0002.56,0011.76,0001.68
2023-10-05 10:42:00,SystemResetWarning,0835.8,5.00,000.00,029.1,027.5,000.0,037.6,030.7,13.7,0000.0,0002.63,0012.03,0001.69
2023-10-05 10:43:00,SystemResetWarning,0835.8,5.00,000.00,029.1,027.5,000.0,037.6,030.7,13.8,0000.0,0002.66,0012.14,0001.69
2023-10-05 10:44:00,SystemResetWarning,0835.8,5.00,000.00,029.1,027.5,000.0,037.6,030.7,13.8,0000.0,0002.63,0011.76,0001.70
2023-10-05 10:45:00,SystemResetWarning,0835.9,5.00,000.00,029.1,027.5,000.0,037.6,030.7,13.7,0000.0,0002.61,0012.05,0001.70
2023-10-05 10:46:00,SystemResetWarning,0835.9,5.00,000.00,029.1,027.5,000.0,037.6,030.6,13.6,0000.0,0002.55,0012.64,0001.69
2023-10-05 10:47:00,SystemResetWarning,0835.9,5.00,000.00,029.1,027.5,000.0,037.6,030.7,13.6,0000.0,0002.43,0012.37,0001.68
2023-10-05 10:48:00,SystemResetWarning,0835.9,5.00,000.00,029.1,027.5,000.0,037.6,030.7,13.8,0000.0,0002.36,0011.87,0001.66
2023-10-05 10:49:00,SystemResetWarning,0835.9,4.99,000.00,029.1,027.5,000.0,037.6,030.7,14.0,0000.0,0002.34,0010.07,0001.66
2023-10-05 10:50:00,SystemResetWarning,0835.9,4.99,000.00,029.1,027.5,000.0,037.6,030.7,13.9,0000.0,0002.42,0009.08,0001.69
2023-10-05 10:51:00,SystemResetWarning,0835.9,4.99,000.00,029.1,027.5,000.0,037.5,030.7,13.7,0000.0,0002.41,0007.77,0001.68
2023-10-05 10:52:00,SystemResetWarning,0835.9,5.00,000.00,029.1,027.5,000.0,037.5,030.7,13.8,0000.0,0002.33,0007.49,0001.67
2023-10-05 10:53:00,SystemResetWarning,0835.9,5.00,000.00,029.1,027.5,000.0,037.5,030.7,14.0,0000.0,0002.24,0007.35,0001.66
2023-10-05 10:54:00,SystemResetWarning,0835.9,5.01,000.00,029.1,027.5,000.0,037.5,030.7,14.1,0000.0,0002.16,0007.31,0001.66
2023-10-05 10:55:00,SystemResetWarning,0835.9,5.00,000.00,029.1,027.5,000.0,037.5,030.7,14.1,0000.0,0002.16,0007.30,0001.66
2023-10-05 10:56:00,SystemResetWarning,0835.9,5.00,000.00,029.1,027.5,000.0,037.5,030.7,14.1,0000.0,0002.17,0006.53,0001.67
2023-10-05 10:57:00,SystemResetWarning,0835.9,5.00,000.00,029.1,027.6,000.0,037.5,030.7,14.1,0000.0,0002.19,0005.44,0001.67
2023-10-05 10:58:00,SystemResetWarning,0835.8,5.00,000.00,029.1,027.6,000.0,037.5,030.7,14.1,0000.0,0002.23,0005.57,0001.68
2023-10-05 10:59:00,SystemResetWarning,0835.8,4.99,000.00,029.1,027.6,000.0,037.5,030.7,14.1,0000.0,0002.30,0005.74,0001.70
